« Back
NWS Peachtree City, Ga » Text Product » CSG Terminal Aerodrome Forecast


Printer-friendly Version
Current Version              Previous Versions:   1  2  3  4  5  6  7  8  9  

Terminal Aerodrome Forecast

308
FTUS42 KFFC 241700
TAFCSG
TAF
KCSG 241731Z 2418/2518 VRB03KT P6SM SKC
     FM242000 30004KT P6SM SKC
     FM250100 00000KT P6SM SKC
     FM251700 33005KT P6SM SKC=

USA.gov is the U.S. government's official web portal to all federal, state and local government web resources and services.